User: anonymous   Login
Location: Unspecified
(0.0000°N, 0.0000°E)
Time: 15:38:21
(UTC+02:00)
Language:

CZ-4 DEB - Orbit

View from above orbital plane
View from above orbital plane
View from above satellite
View from above satellite

Ground track
Ground track

The orbit data is extracted from the following two-line orbital elements,

1 29508U 06046D   15184.14108784  .00014676  00000-0  50864-3 0  9992
2 29508 097.6856 203.5331 0006405 071.2070 333.1706 15.29919458475165
Epoch (UTC): 03 July 2015 03:23:09
Eccentricity: 0.0006405
inclination: 97.6856°
perigee height: 471 km
apogee height: 480 km
right ascension of ascending node: 203.5331°
argument of perigee: 71.2070°
revolutions per day: 15.29919458
mean anomaly at epoch: 333.1706°
orbit number at epoch: 47516

The dashed part of the orbit path shows where the satellite is in the earth's shadow,  

DLR